Location: Dellec
(48.3527°N, 4.5694°W)
Time: 07:04:34
(UTC+00:00)

Daily predictions for brighter satellites

Satellite Brightness Start Highest point End
(mag) Time Altitude Azimuth Time Altitude Azimuth Time Altitude Azimuth
BREEZE-M DEB (TANK) 3.8 17:29:49 10° WSW 17:33:03 78° NNW 17:44:15 10° ENE
CZ-4C R/B 3.7 17:32:16 10° N 17:35:28 54° WNW 17:38:43 10° SSW
CZ-4C R/B 4.1 17:32:58 10° NW 17:37:41 22° N 17:43:02 10° NE
NOAA 12 4.1 17:33:38 10° SSE 17:38:55 81° ENE 17:44:17 10° NNW
Cosmos 1953 Rocket 3.9 17:36:57 10° N 17:41:13 45° ENE 17:45:29 10° SSE
Cosmos 1300 3.3 17:39:10 10° SSE 17:42:40 36° E 17:46:12 10° NNE
SL-4 R/B 2.2 17:42:00 10° W 17:45:25 49° N 17:49:03 10° ENE
Cosmos 1697 Rocket 4.3 17:43:12 10° SE 17:45:55 14° E 17:48:38 10° ENE
Cosmos 2058 Rocket 4.0 17:42:13 10° SSE 17:46:04 28° E 17:49:56 10° NNE
Cosmos 1331 Rocket 4.0 17:41:08 10° S 17:46:11 61° ESE 17:51:17 10° NNE
Cosmos 1703 4.3 17:43:51 10° NNW 17:47:42 52° W 17:51:32 10° S
H-2A R/B 4.3 17:44:18 10° SSW 17:48:29 40° W 17:52:45 10° NNW
IRS-1C Rocket 4.4 17:43:49 10° SE 17:48:48 45° ENE 17:53:49 10° N
CZ-2D R/B 4.2 17:45:42 10° SE 17:48:53 26° ENE 17:52:06 10° N
Cosmos 1346 Rocket 4.3 17:46:12 10° NNE 17:48:55 17° ENE 17:51:38 10° ESE
USA 305 3.5 17:45:16 10° WNW 17:49:26 45° NNE 17:53:27 11° E
SeaSat 1 4.0 17:46:52 10° E 17:50:05 18° NE 17:53:20 10° N
Cosmos 1953 4.1 17:46:29 10° SW 17:50:07 34° WNW 17:53:46 10° N
Cosmos 1825 4.2 17:50:15 10° NE 17:51:06 11° ENE 17:51:38 10° ENE
Cosmos 44 3.4 17:49:04 10° SSW 17:53:26 53° ESE 17:58:06 10° NE
USA 306 3.4 17:51:41 10° WNW 17:55:51 46° NNE 17:59:35 12° E
NOAA 11 4.1 17:50:48 10° SSE 17:56:13 73° ENE 18:01:39 10° N
USA 215 4.0 17:51:51 10° ENE 17:57:55 42° N 18:03:58 10° WNW
BREEZE-M R/B 3.2 17:55:59 10° W 17:59:23 75° N 18:05:18 13° E
SAR-Lupe-4 4.0 17:56:01 10° NNE 17:59:27 41° E 18:02:51 10° S
ERS-2 2.0 17:55:56 10° NNE 17:59:36 79° ESE 18:03:14 10° SSW
ATLAS 2AS CENTAUR R/B 4.0 17:53:01 10° NW 17:59:37 29° NNE 18:05:17 12° ENE
Cosmos 968 Rocket 3.9 17:58:05 10° NNW 18:03:03 40° ENE 18:07:55 10° SE
Cosmos 1340 3.0 18:00:30 10° N 18:04:07 42° ENE 18:07:43 10° SE
Cosmos 2369 Rocket 4.3 18:02:13 10° W 18:06:35 22° NW 18:10:59 10° N
Cosmos 2297 Rocket 2.2 18:01:47 10° NNW 18:07:27 64° ENE 18:13:04 10° SE
COSMO-SKYMED 1 2.9 18:04:04 10° NNE 18:08:14 44° E 18:12:23 10° S
H-2A R/B 3.5 18:06:06 10° N 18:09:58 37° WNW 18:13:46 10° SW
In-Cosmos 22 Rocket 4.2 18:05:01 10° N 18:10:16 53° ENE 18:15:36 10° SSE
Aureole 3 Rocket 3.4 18:07:43 10° SSE 18:11:35 49° E 18:16:54 10° NNE
Cosmos 1110 Rocket 4.3 18:09:37 10° SSW 18:14:52 73° WNW 18:20:06 10° NNE
Cosmos 1302 Rocket 4.1 18:12:01 10° S 18:17:11 59° ESE 18:22:24 10° NNE
SAR-Lupe-1 4.0 18:13:47 10° NNE 18:17:22 63° ESE 18:20:55 10° S
Lacrosse 5 3.1 18:15:22 10° WNW 18:19:52 31° N 18:23:30 14° NE
FALCON 9 DEB 4.0 18:17:09 10° WNW 18:20:23 37° N 18:22:07 22° ENE
FALCON 9 DEB 3.0 18:18:38 10° SW 18:21:51 66° SSE 18:23:30 26° ENE
ERBS 4.3 18:19:51 10° NW 18:22:18 18° N 18:24:02 13° NE
Cosmos 292 Rocket 3.8 18:17:32 10° SSW 18:22:19 86° WNW 18:27:12 10° NNE
Okean O Rocket 3.4 18:18:29 10° SSW 18:22:29 35° W 18:26:30 10° NNW
Cosmos 1486 Rocket 4.1 18:18:20 10° NNW 18:23:39 60° ENE 18:28:54 10° SE
YAOGAN 1 2.9 18:19:50 10° SE 18:23:54 43° ENE 18:28:01 10° N
Aureole 3 2.5 18:22:06 10° S 18:25:12 64° E 18:28:10 10° NNE
FALCON 9 DEB 2.8 18:22:50 10° SW 18:26:02 74° SSE 18:27:30 29° ENE
ADEOS Rocket 4.5 18:23:44 10° N 18:29:39 43° WNW 18:36:09 10° SW
Cosmos 1455 3.0 18:28:00 10° SSE 18:31:12 27° E 18:31:14 27° E
Meteor 2-8 Rocket 4.4 18:25:17 10° S 18:31:20 72° E 18:37:28 10° NNE
SKYMED 3 4.5 18:27:58 10° NNE 18:32:20 77° ESE 18:36:40 10° S
Cosmos 1503 Rocket 4.3 18:28:25 10° NNW 18:33:24 43° ENE 18:37:12 17° SE
CZ-2C R/B 3.3 18:28:23 10° SSE 18:34:02 58° ENE 18:39:33 10° N
Cosmos 1726 Rocket 4.1 18:30:18 10° SSW 18:34:36 62° WNW 18:38:59 10° N
Cosmos 2219 3.4 18:32:03 10° NNW 18:37:49 77° WSW 18:43:33 10° SSE
FALCON 9 DEB 2.8 18:34:52 10° WSW 18:38:06 85° SSE 18:39:10 40° ENE
CZ-4B R/B 3.0 18:35:10 10° N 18:38:08 34° WNW 18:41:02 10° SW
USA 307 3.0 18:34:42 10° WNW 18:38:59 64° NNE 18:40:52 31° E
Cosmos 1939 Rocket 3.3 18:36:45 10° S 18:40:41 63° W 18:44:34 10° NNW
Cosmos 2228 4.5 18:37:31 10° SW 18:41:31 39° WNW 18:45:33 10° N
USA 308 2.9 18:39:32 10° WNW 18:43:50 67° NNE 18:45:30 35° E
Meteor 2-10 Rocket 3.6 18:39:21 10° S 18:44:28 52° E 18:49:27 10° NNE
Cosmos 1354 Rocket 4.2 18:39:54 10° NNW 18:45:00 47° ENE 18:47:53 24° ESE
Cosmos 1553 Rocket 3.9 18:38:41 10° S 18:45:01 76° E 18:51:17 10° NNE
Cosmos 2082 3.7 18:40:49 10° NNW 18:46:32 61° ENE 18:50:45 18° SE
Helios 1A Rocket 3.1 18:44:01 10° S 18:48:08 76° WSW 18:52:15 10° NNW
FALCON 9 DEB 2.9 18:46:29 10° WSW 18:49:42 78° NNW 18:50:17 55° NE
ATLAS 5 CENTAUR R/B 4.0 18:49:00 10° NW 18:51:50 16° N 18:54:54 10° NNE
Cosmos 1689 Rocket 2.8 18:49:39 10° N 18:52:30 52° WNW 18:55:19 10° SSW
Meteor 2-15 Rocket 4.5 18:46:57 10° S 18:52:55 56° E 18:58:56 10° NNE
Okean-O 2.8 18:51:30 10° S 18:55:55 74° WSW 19:00:22 10° NNW
Cosmos 1992 Rocket 4.0 18:51:10 10° S 18:56:12 53° ESE 18:59:48 19° NE
SKYMED 2 4.0 18:52:04 10° N 18:56:22 62° WNW 19:00:39 10° SSW
Cosmos 2151 4.5 18:54:07 10° N 18:56:04 22° NNE 18:56:04 22° NNE
ARGOS 3.3 18:54:41 22° SE 18:57:56 50° ENE 19:03:11 10° N
Cosmos 1400 Rocket 3.7 18:56:32 10° SSW 19:00:32 51° WNW 19:04:33 10° N
Cosmos 2369 3.9 18:55:39 10° S 19:01:03 45° ESE 19:03:11 32° ENE
PSLV R/B 4.4 18:59:42 10° N 19:03:51 61° WNW 19:07:56 10° SSW
Cosmos 1656 3.7 18:58:31 10° SSW 19:04:06 86° WNW 19:09:48 10° NNE
CZ-4 R/B 1.7 19:00:56 10° S 19:04:46 61° WSW 19:08:37 10° NNW
Meteor 2-15 4.3 18:59:10 10° S 19:05:19 84° E 19:11:29 10° N
Cosmos 2058 2.9 19:01:53 10° NNW 19:06:00 82° W 19:10:06 10° S
Cosmos 1892 3.4 19:02:15 10° NNW 19:06:05 56° W 19:09:53 10° S
H-2A R/B 2.0 19:01:15 10° SSE 19:06:39 75° ENE 19:12:07 10° N
Ariane Rocket 3.9 19:07:51 30° NE 19:07:51 30° NE 19:11:28 10° N
GEOS 3 Rocket 3.6 19:05:41 32° SE 19:08:19 81° NE 19:13:44 10° NW
Geosat 4.0 19:06:43 32° NE 19:08:54 59° ESE 19:13:51 10° SSW
Cosmos 220 Rocket 3.9 19:05:10 10° SSW 19:09:30 73° ESE 19:10:52 43° NE
Cosmos 1408 2.6 19:05:59 10° NNW 19:09:38 76° W 19:11:40 25° S
Cosmos 1745 Rocket 4.0 19:03:28 10° N 19:09:48 85° W 19:16:08 10° S
Cosmos 2227 Rocket 2.9 19:06:04 10° NW 19:11:35 55° WSW 19:17:05 10° S
CSL-04 Rocket 3.6 19:10:24 10° SSE 19:15:58 89° ENE 19:21:31 10° NNW
Atlas Centaur 2 4.5 19:11:16 10° SW 19:17:10 21° S 19:20:08 17° SSE
Cosmos 2263 Rocket 2.9 19:12:11 10° NNW 19:17:16 35° NE 19:17:16 35° NE
Timation 1 Rocket 4.2 19:12:28 10° NNW 19:18:31 71° ENE 19:20:34 42° SE
Meteor 2-1 Rocket 4.1 19:18:36 10° SSW 19:24:07 85° WNW 19:29:41 10° N
SL-4 R/B 2.3 19:21:40 10° WNW 19:24:38 55° NW 19:24:38 55° NW
Cosmos 1346 Rocket 3.8 19:21:43 10° NNW 19:25:33 46° W 19:29:23 10° S
SeaSat 1 2.3 19:26:15 64° ESE 19:26:55 76° ENE 19:31:53 10° NNW
Cosmos 1825 2.6 19:23:21 10° NNW 19:26:28 56° NNW 19:26:28 56° NNW
CZ-4C R/B 3.6 19:22:05 10° NW 19:28:13 36° NNE 19:29:36 33° NE
Cosmos 1697 Rocket 2.5 19:23:21 10° SSW 19:28:58 83° ESE 19:31:26 35° NNE
USA 305 3.0 19:25:22 10° WNW 19:29:36 70° SW 19:29:36 70° SW
NOSS 3-4 (A) 3.9 19:23:05 10° NW 19:29:52 60° NE 19:31:39 48° E
NOSS 3-4 (C) 3.9 19:23:11 10° NW 19:29:58 60° NE 19:31:43 48° E
Cosmos 1315 Rocket 3.1 19:27:48 10° SSW 19:31:45 65° WNW 19:32:10 59° NW
DEBRIS 4.1 19:17:07 10° WSW 19:35:27 76° SSE 19:36:50 56° E
USA 306 3.2 19:31:48 10° WNW 19:35:44 62° WSW 19:35:44 62° WSW
Cosmos 1709 Rocket 4.0 19:33:10 10° N 19:39:35 88° W 19:44:29 18° S
NOSS 3-3 (A) 3.8 19:34:05 10° SW 19:39:56 86° SE 19:41:47 49° NE
NOSS 3-3 (C) 3.8 19:34:11 10° SW 19:40:04 86° SE 19:41:53 50° NE
USA 215 3.4 19:39:00 51° ENE 19:40:20 60° NNE 19:46:45 10° NW
SJ 16-02 4.0 19:41:06 10° N 19:41:06 10° N 19:41:06 10° N
MOS 1 Rocket 3.8 19:42:44 10° N 19:47:19 60° WNW 19:52:10 10° SSW
Cosmos 2297 Rocket 4.4 19:46:39 10° NW 19:51:01 23° WSW 19:55:22 10° SSW
Cosmos 1980 Rocket 3.2 19:46:04 10° SSW 19:49:10 34° S 19:49:10 34° S
ATLAS 2AS CENTAUR R/B 2.8 19:44:32 10° NW 19:52:06 64° NE 19:52:43 61° ENE
IRS-1A Rocket 4.4 19:53:26 61° NNE 19:53:26 61° NNE 19:58:05 10° NNW
Cosmos 2315 Rocket 3.9 19:54:06 10° S 20:00:19 82° W 20:06:34 10° N
Lacrosse 5 3.1 19:59:06 10° NW 20:02:41 34° NNW 20:02:41 34° NNW
Cosmos 1455 4.4 20:03:38 10° SW 20:06:17 24° W 20:06:17 24° W
Cosmos 2360 4.4 20:02:31 10° SW 20:08:13 68° WNW 20:08:21 68° NW
Meteor 2-3 Rocket 4.4 20:12:53 10° NNW 20:17:02 49° NNW 20:17:02 49° NNW
BREEZE-M R/B 4.3 20:17:21 10° WNW 20:22:09 68° SW 20:22:09 68° SW
ATLAS 5 CENTAUR R/B 4.3 20:34:56 10° NNW 20:36:32 15° N 20:36:32 15° N
Cosmos 2263 Rocket 3.9 20:56:03 10° NW 20:58:58 29° NW 20:58:58 29° NW
CZ-4C R/B 3.8 21:10:27 10° NW 21:14:47 43° NW 21:14:47 43° NW
ATLAS 2AS CENTAUR R/B 4.4 21:36:05 10° NW 21:40:10 29° WNW 21:40:10 29° WNW
